Time,TemperatureF,DewpointF,PressureIn,WindDirection,WindDirectionDegrees,WindSpeedMPH,WindSpeedGustMPH,Humidity,HourlyPrecipIn,Conditions,Clouds,dailyrainin,SolarRadiationWatts/m^2,SoftwareType,DateUTC
2013-02-11 06:36:00,29.7,4.1,29.91,WNW,292,8.1,8.1,33,-99.99,,---,-99.99,0.00,VWS V14.01,2013-02-11 12:36:00,
2013-02-11 06:38:00,29.7,4.1,29.91,WNW,292,8.1,8.1,33,-99.99,,---,-99.99,0.00,VWS V14.01,2013-02-11 12:38:00,
2013-02-11 06:41:00,29.7,4.1,29.91,WNW,292,10.5,10.5,33,-99.99,,---,-99.99,0.00,VWS V14.01,2013-02-11 12:41:00,
2013-02-11 06:47:00,29.8,4.2,29.91,WNW,292,11.0,11.0,33,-99.99,,---,-99.99,0.00,VWS V14.01,2013-02-11 12:47:00,
2013-02-11 06:52:00,29.8,4.2,29.91,WNW,292,10.5,10.5,33,-99.99,,---,-99.99,0.00,VWS V14.01,2013-02-11 12:52:00,
2013-02-11 06:58:00,29.8,4.2,29.91,WNW,292,13.0,13.0,33,-99.99,,---,-99.99,0.00,VWS V14.01,2013-02-11 12:58:00,
2013-02-11 07:03:00,30.4,4.1,29.91,NW,315,11.0,17.0,32,-99.99,,---,-99.99,0.00,VWS V14.01,2013-02-11 13:03:00,
2013-02-11 07:08:00,30.7,3.7,29.91,NNW,338,17.5,17.5,31,-99.99,,---,-99.99,0.00,VWS V14.01,2013-02-11 13:08:00,
2013-02-11 07:13:00,30.7,3.7,29.91,WNW,292,12.5,12.5,31,-99.99,,---,-99.99,0.00,VWS V14.01,2013-02-11 13:13:00,
2013-02-11 07:18:00,30.7,3.7,29.91,WNW,292,12.8,12.8,31,-99.99,,---,-99.99,0.00,VWS V14.01,2013-02-11 13:18:00,
2013-02-11 07:24:00,30.7,3.7,29.91,WNW,292,10.3,10.3,31,-99.99,,---,-99.99,0.00,VWS V14.01,2013-02-11 13:24:00,
2013-02-11 07:29:00,30.7,3.7,29.91,WNW,292,13.2,13.2,31,-99.99,,---,-99.99,0.00,VWS V14.01,2013-02-11 13:29:00,
2013-02-11 07:34:00,30.9,3.8,29.91,WNW,292,10.3,12.8,31,-99.99,,---,-99.99,0.00,VWS V14.01,2013-02-11 13:34:00,
2013-02-11 07:41:00,30.9,3.8,29.94,WNW,292,8.1,12.3,31,-99.99,,---,-99.99,0.00,VWS V14.01,2013-02-11 13:41:00,
2013-02-11 07:47:00,30.9,3.8,29.94,WNW,292,10.1,10.1,31,-99.99,,---,-99.99,0.00,VWS V14.01,2013-02-11 13:47:00,
2013-02-11 07:52:00,31.1,4.0,29.94,WNW,292,10.1,12.3,31,-99.99,,---,-99.99,0.00,VWS V14.01,2013-02-11 13:52:00,
2013-02-11 07:58:00,31.3,4.2,29.94,WNW,292,7.4,10.1,31,-99.99,,---,-99.99,0.00,VWS V14.01,2013-02-11 13:58:00,
2013-02-11 08:04:00,31.5,4.3,29.94,WNW,292,10.7,10.7,31,-99.99,,---,-99.99,0.00,VWS V14.01,2013-02-11 14:04:00,
2013-02-11 08:10:00,31.5,4.3,29.94,WNW,292,12.5,12.5,31,-99.99,,---,-99.99,0.00,VWS V14.01,2013-02-11 14:10:00,
2013-02-11 08:15:00,31.8,4.6,29.94,WNW,292,8.1,8.5,31,-99.99,,---,-99.99,0.00,VWS V14.01,2013-02-11 14:15:00,
2013-02-11 08:20:00,32.0,4.8,29.97,WNW,292,7.6,8.1,31,-99.99,,---,-99.99,0.00,VWS V14.01,2013-02-11 14:20:00,
2013-02-11 08:26:00,32.2,4.2,29.97,WNW,292,15.4,20.8,30,-99.99,,---,-99.99,0.00,VWS V14.01,2013-02-11 14:26:00,
2013-02-11 08:31:00,32.4,4.4,29.97,WNW,292,19.0,19.9,30,-99.99,,---,-99.99,0.00,VWS V14.01,2013-02-11 14:31:00,
2013-02-11 08:37:00,32.7,4.7,29.97,WNW,292,9.4,17.5,30,-99.99,,---,-99.99,0.00,VWS V14.01,2013-02-11 14:37:00,
2013-02-11 08:42:00,32.9,3.4,29.97,WNW,292,11.0,11.0,28,-99.99,,---,-99.99,0.00,VWS V14.01,2013-02-11 14:42:00,
2013-02-11 08:48:00,33.3,3.7,29.97,NW,315,13.2,15.4,28,-99.99,,---,-99.99,0.00,VWS V14.01,2013-02-11 14:48:00,
2013-02-11 08:54:00,33.4,3.8,29.97,WNW,292,13.2,21.9,28,-99.99,,---,-99.99,0.00,VWS V14.01,2013-02-11 14:54:00,
2013-02-11 09:00:00,33.6,1.6,29.97,NW,315,17.5,17.5,25,-99.99,,---,-99.99,0.00,VWS V14.01,2013-02-11 15:00:00,
2013-02-11 09:05:00,33.6,1.6,29.97,WNW,292,14.5,14.5,25,-99.99,,---,-99.99,0.00,VWS V14.01,2013-02-11 15:05:00,
2013-02-11 09:10:00,33.4,1.4,29.97,WNW,292,19.7,19.7,25,-99.99,,---,-99.99,0.00,VWS V14.01,2013-02-11 15:10:00,
2013-02-11 09:16:00,33.4,1.4,29.97,WNW,292,11.0,11.0,25,-99.99,,---,-99.99,0.00,VWS V14.01,2013-02-11 15:16:00,
2013-02-11 09:22:00,34.0,1.9,30.00,NNW,338,11.9,11.9,25,-99.99,,---,-99.99,0.00,VWS V14.01,2013-02-11 15:22:00,
2013-02-11 09:27:00,34.3,2.2,30.00,WNW,292,11.2,11.2,25,-99.99,,---,-99.99,0.00,VWS V14.01,2013-02-11 15:27:00,
2013-02-11 09:32:00,34.3,2.2,30.00,WNW,292,13.0,14.1,25,-99.99,,---,-99.99,0.00,VWS V14.01,2013-02-11 15:32:00,
2013-02-11 09:37:00,34.3,2.2,30.00,WNW,292,15.4,15.4,25,-99.99,,---,-99.99,0.00,VWS V14.01,2013-02-11 15:37:00,
2013-02-11 09:43:00,35.1,2.8,30.00,NW,315,13.4,13.4,25,-99.99,,---,-99.99,0.00,VWS V14.01,2013-02-11 15:43:00,
2013-02-11 09:48:00,35.1,2.8,30.00,NW,315,14.8,14.8,25,-99.99,,---,-99.99,0.00,VWS V14.01,2013-02-11 15:48:00,
2013-02-11 09:53:00,35.6,2.4,30.00,NNW,338,13.9,17.0,24,-99.99,,---,-99.99,0.00,VWS V14.01,2013-02-11 15:53:00,
2013-02-11 09:59:00,36.1,2.8,30.00,WNW,292,18.6,18.6,24,-99.99,,---,-99.99,0.00,VWS V14.01,2013-02-11 15:59:00,
2013-02-11 10:04:00,35.8,0.7,30.00,WNW,292,22.8,22.8,22,-99.99,,---,-99.99,0.00,VWS V14.01,2013-02-11 16:04:00,
2013-02-11 10:10:00,36.1,2.8,30.00,WNW,292,13.0,13.0,24,-99.99,,---,-99.99,0.00,VWS V14.01,2013-02-11 16:10:00,
2013-02-11 10:16:00,36.3,1.1,30.00,WNW,292,17.7,17.7,22,-99.99,,---,-99.99,0.00,VWS V14.01,2013-02-11 16:16:00,
2013-02-11 10:22:00,36.9,1.6,30.03,NW,315,15.4,15.4,22,-99.99,,---,-99.99,0.00,VWS V14.01,2013-02-11 16:22:00,
2013-02-11 10:27:00,37.0,1.7,30.03,WNW,292,13.6,13.6,22,-99.99,,---,-99.99,0.00,VWS V14.01,2013-02-11 16:27:00,
2013-02-11 10:33:00,37.2,1.9,30.03,NNW,338,12.3,12.5,22,-99.99,,---,-99.99,0.00,VWS V14.01,2013-02-11 16:33:00,
2013-02-11 10:38:00,37.6,1.2,30.03,NNW,338,13.2,15.4,21,-99.99,,---,-99.99,0.00,VWS V14.01,2013-02-11 16:38:00,
2013-02-11 10:43:00,37.4,1.0,30.03,NNW,338,15.4,15.4,21,-99.99,,---,-99.99,0.00,VWS V14.01,2013-02-11 16:43:00,
2013-02-11 10:48:00,37.6,1.2,30.03,WNW,292,18.1,18.1,21,-99.99,,---,-99.99,0.00,VWS V14.01,2013-02-11 16:48:00,
2013-02-11 10:53:00,37.6,1.2,30.03,WNW,292,15.4,15.4,21,-99.99,,---,-99.99,0.00,VWS V14.01,2013-02-11 16:53:00,
2013-02-11 10:58:00,37.8,1.4,30.03,WNW,292,20.1,20.1,21,-99.99,,---,-99.99,0.00,VWS V14.01,2013-02-11 16:58:00,
2013-02-11 11:04:00,38.3,1.8,30.03,NW,315,16.3,20.1,21,-99.99,,---,-99.99,0.00,VWS V14.01,2013-02-11 17:04:00,
2013-02-11 11:09:00,38.5,2.0,24.57,WNW,292,18.6,18.6,21,-99.99,,---,-99.99,0.00,VWS V14.01,2013-02-11 17:09:00,
2013-02-11 11:15:00,38.5,2.0,30.03,WNW,292,12.5,12.5,21,-99.99,,---,-99.99,0.00,VWS V14.01,2013-02-11 17:15:00,
2013-02-11 11:21:00,38.5,2.0,30.00,NW,315,12.1,19.9,21,-99.99,,---,-99.99,0.00,VWS V14.01,2013-02-11 17:21:00,
2013-02-11 11:26:00,38.5,2.0,30.00,WNW,292,15.2,15.2,21,-99.99,,---,-99.99,0.00,VWS V14.01,2013-02-11 17:26:00,
2013-02-11 11:32:00,39.4,2.7,30.00,NNW,338,13.2,14.3,21,-99.99,,---,-99.99,0.00,VWS V14.01,2013-02-11 17:32:00,
2013-02-11 11:38:00,39.4,2.7,30.00,WNW,292,12.8,12.8,21,-99.99,,---,-99.99,0.00,VWS V14.01,2013-02-11 17:38:00,
2013-02-11 11:44:00,40.1,3.3,30.03,WNW,292,13.9,15.2,21,-99.99,,---,-99.99,0.00,VWS V14.01,2013-02-11 17:44:00,
2013-02-11 11:49:00,40.3,3.5,30.03,WNW,292,12.8,17.2,21,-99.99,,---,-99.99,0.00,VWS V14.01,2013-02-11 17:49:00,
2013-02-11 11:54:00,39.7,3.0,30.03,WNW,292,10.1,10.1,21,-99.99,,---,-99.99,0.00,VWS V14.01,2013-02-11 17:54:00,
2013-02-11 12:00:00,40.1,3.3,30.03,West,270,15.2,15.2,21,-99.99,,---,-99.99,0.00,VWS V14.01,2013-02-11 18:00:00,
2013-02-11 12:05:00,40.1,3.3,30.03,WNW,292,13.0,13.0,21,-99.99,,---,-99.99,0.00,VWS V14.01,2013-02-11 18:05:00,
2013-02-11 12:10:00,41.5,4.5,30.03,WNW,292,14.1,14.1,21,-99.99,,---,-99.99,0.00,VWS V14.01,2013-02-11 18:10:00,
2013-02-11 12:15:00,41.0,4.1,30.03,West,270,8.5,13.2,21,-99.99,,---,-99.99,0.00,VWS V14.01,2013-02-11 18:15:00,
2013-02-11 12:21:00,41.5,4.5,30.03,WSW,248,8.5,8.5,21,-99.99,,---,-99.99,0.00,VWS V14.01,2013-02-11 18:21:00,
2013-02-11 12:26:00,42.1,5.0,30.03,NW,315,12.5,12.5,21,-99.99,,---,-99.99,0.00,VWS V14.01,2013-02-11 18:26:00,
2013-02-11 12:32:00,41.7,4.7,30.03,West,270,10.3,10.3,21,-99.99,,---,-99.99,0.00,VWS V14.01,2013-02-11 18:32:00,
2013-02-11 12:37:00,41.9,4.8,30.03,WNW,292,9.8,9.8,21,-99.99,,---,-99.99,0.00,VWS V14.01,2013-02-11 18:37:00,
2013-02-11 12:42:00,42.8,4.5,30.03,WNW,292,17.2,17.2,20,-99.99,,---,-99.99,0.00,VWS V14.01,2013-02-11 18:42:00,
2013-02-11 12:47:00,43.0,4.7,30.03,West,270,12.3,12.3,20,-99.99,,---,-99.99,0.00,VWS V14.01,2013-02-11 18:47:00,
2013-02-11 12:52:00,42.6,5.4,30.03,WNW,292,13.0,13.0,21,-99.99,,---,-99.99,0.00,VWS V14.01,2013-02-11 18:52:00,
2013-02-11 12:58:00,42.6,5.4,30.03,NW,315,6.5,8.7,21,-99.99,,---,-99.99,0.00,VWS V14.01,2013-02-11 18:58:00,
2013-02-11 13:03:00,42.8,4.5,30.03,WNW,292,10.5,10.5,20,-99.99,,---,-99.99,0.00,VWS V14.01,2013-02-11 19:03:00,
2013-02-11 13:09:00,43.9,5.4,30.06,WNW,292,9.8,9.8,20,-99.99,,---,-99.99,0.00,VWS V14.01,2013-02-11 19:09:00,
2013-02-11 13:14:00,43.7,5.3,30.06,WNW,292,10.3,12.3,20,-99.99,,---,-99.99,0.00,VWS V14.01,2013-02-11 19:14:00,
2013-02-11 13:19:00,43.5,5.1,30.06,WNW,292,5.8,17.7,20,-99.99,,---,-99.99,0.00,VWS V14.01,2013-02-11 19:19:00,
2013-02-11 13:25:00,43.7,5.3,30.06,WNW,292,10.3,13.0,20,-99.99,,---,-99.99,0.00,VWS V14.01,2013-02-11 19:25:00,
2013-02-11 13:30:00,44.2,5.7,30.06,NNW,338,8.1,10.1,20,-99.99,,---,-99.99,0.00,VWS V14.01,2013-02-11 19:30:00,
2013-02-11 13:36:00,44.4,5.9,30.06,WNW,292,6.3,8.7,20,-99.99,,---,-99.99,0.00,VWS V14.01,2013-02-11 19:36:00,
2013-02-11 13:41:00,44.8,6.2,30.06,NW,315,10.3,13.2,20,-99.99,,---,-99.99,0.00,VWS V14.01,2013-02-11 19:41:00,
2013-02-11 13:46:00,45.0,6.3,30.06,WNW,292,11.2,11.2,20,-99.99,,---,-99.99,0.00,VWS V14.01,2013-02-11 19:46:00,
2013-02-11 13:51:00,45.3,6.6,30.06,WSW,248,7.8,11.0,20,-99.99,,---,-99.99,0.00,VWS V14.01,2013-02-11 19:51:00,
2013-02-11 13:57:00,45.5,6.8,30.06,West,270,10.7,10.7,20,-99.99,,---,-99.99,0.00,VWS V14.01,2013-02-11 19:57:00,
2013-02-11 14:03:00,45.3,6.6,30.06,WNW,292,12.3,12.3,20,-99.99,,---,-99.99,0.00,VWS V14.01,2013-02-11 20:03:00,
2013-02-11 14:08:00,45.3,6.6,30.03,WNW,292,11.2,11.2,20,-99.99,,---,-99.99,0.00,VWS V14.01,2013-02-11 20:08:00,
2013-02-11 14:13:00,45.5,6.8,30.03,West,270,9.0,9.0,20,-99.99,,---,-99.99,0.00,VWS V14.01,2013-02-11 20:13:00,
2013-02-11 14:18:00,45.5,6.8,30.03,WNW,292,9.8,9.8,20,-99.99,,---,-99.99,0.00,VWS V14.01,2013-02-11 20:18:00,
2013-02-11 14:24:00,45.5,6.8,30.03,NW,315,10.5,13.0,20,-99.99,,---,-99.99,0.00,VWS V14.01,2013-02-11 20:24:00,
2013-02-11 14:29:00,45.3,6.6,30.03,WNW,292,8.1,10.1,20,-99.99,,---,-99.99,0.00,VWS V14.01,2013-02-11 20:29:00,
2013-02-11 14:34:00,45.9,7.1,30.03,WNW,292,10.5,10.5,20,-99.99,,---,-99.99,0.00,VWS V14.01,2013-02-11 20:34:00,
2013-02-11 14:40:00,45.3,6.6,30.03,NW,315,14.8,14.8,20,-99.99,,---,-99.99,0.00,VWS V14.01,2013-02-11 20:40:00,
2013-02-11 14:46:00,45.3,6.6,30.03,NW,315,11.2,13.0,20,-99.99,,---,-99.99,0.00,VWS V14.01,2013-02-11 20:46:00,
2013-02-11 14:52:00,45.5,6.8,30.03,WNW,292,13.0,13.0,20,-99.99,,---,-99.99,0.00,VWS V14.01,2013-02-11 20:52:00,
2013-02-11 14:57:00,45.5,6.8,30.03,WNW,292,12.8,12.8,20,-99.99,,---,-99.99,0.00,VWS V14.01,2013-02-11 20:57:00,
2013-02-11 15:02:00,45.9,7.1,30.03,WNW,292,15.2,15.2,20,-99.99,,---,-99.99,0.00,VWS V14.01,2013-02-11 21:02:00,
2013-02-11 15:08:00,46.0,7.2,30.03,WSW,248,8.7,8.7,20,-99.99,,---,-99.99,0.00,VWS V14.01,2013-02-11 21:08:00,
2013-02-11 15:14:00,45.9,7.1,30.03,NW,315,10.7,12.8,20,-99.99,,---,-99.99,0.00,VWS V14.01,2013-02-11 21:14:00,
2013-02-11 15:19:00,46.2,7.4,30.03,West,270,8.5,10.1,20,-99.99,,---,-99.99,0.00,VWS V14.01,2013-02-11 21:19:00,
2013-02-11 15:24:00,46.0,7.2,30.03,West,270,12.8,12.8,20,-99.99,,---,-99.99,0.00,VWS V14.01,2013-02-11 21:24:00,
2013-02-11 15:30:00,45.9,7.1,30.03,WNW,292,11.0,12.8,20,-99.99,,---,-99.99,0.00,VWS V14.01,2013-02-11 21:30:00,
2013-02-11 15:35:00,45.7,6.9,30.03,WNW,292,9.2,9.2,20,-99.99,,---,-99.99,0.00,VWS V14.01,2013-02-11 21:35:00,
2013-02-11 15:43:00,45.7,6.9,30.03,WNW,292,8.5,10.1,20,-99.99,,---,-99.99,0.00,VWS V14.01,2013-02-11 21:43:00,
2013-02-11 15:48:00,45.9,7.1,30.03,NW,315,8.1,8.1,20,-99.99,,---,-99.99,0.00,VWS V14.01,2013-02-11 21:48:00,
2013-02-11 15:54:00,45.3,6.6,30.03,WNW,292,10.5,10.5,20,-99.99,,---,-99.99,0.00,VWS V14.01,2013-02-11 21:54:00,
2013-02-11 15:59:00,45.3,6.6,30.03,WNW,292,12.3,13.0,20,-99.99,,---,-99.99,0.00,VWS V14.01,2013-02-11 21:59:00,
2013-02-11 16:04:00,45.3,6.6,30.03,WNW,292,8.7,9.8,20,-99.99,,---,-99.99,0.00,VWS V14.01,2013-02-11 22:04:00,
2013-02-11 16:10:00,45.3,6.6,30.03,NW,315,10.1,10.1,20,-99.99,,---,-99.99,0.00,VWS V14.01,2013-02-11 22:10:00,
2013-02-11 16:16:00,45.1,6.5,30.03,NW,315,10.1,10.1,20,-99.99,,---,-99.99,0.00,VWS V14.01,2013-02-11 22:16:00,
2013-02-11 16:21:00,45.3,6.6,30.03,WNW,292,11.0,11.0,20,-99.99,,---,-99.99,0.00,VWS V14.01,2013-02-11 22:21:00,
2013-02-11 16:26:00,45.0,6.3,30.03,WNW,292,8.5,10.5,20,-99.99,,---,-99.99,0.00,VWS V14.01,2013-02-11 22:26:00,
2013-02-11 16:31:00,45.0,6.3,30.03,WNW,292,10.7,10.7,20,-99.99,,---,-99.99,0.00,VWS V14.01,2013-02-11 22:31:00,
2013-02-11 16:37:00,44.4,5.9,30.03,NW,315,7.8,13.2,20,-99.99,,---,-99.99,0.00,VWS V14.01,2013-02-11 22:37:00,
2013-02-11 16:43:00,44.2,5.7,30.03,WNW,292,6.5,9.6,20,-99.99,,---,-99.99,0.00,VWS V14.01,2013-02-11 22:43:00,
2013-02-11 16:48:00,43.9,5.4,30.03,NW,315,8.5,12.8,20,-99.99,,---,-99.99,0.00,VWS V14.01,2013-02-11 22:48:00,
2013-02-11 16:54:00,43.9,5.4,30.03,WNW,292,9.2,9.2,20,-99.99,,---,-99.99,0.00,VWS V14.01,2013-02-11 22:54:00,
2013-02-11 17:00:00,43.7,5.3,30.03,NW,315,5.8,5.8,20,-99.99,,---,-99.99,0.00,VWS V14.01,2013-02-11 23:00:00,
2013-02-11 17:06:00,43.5,5.1,30.03,NW,315,8.7,8.7,20,-99.99,,---,-99.99,0.00,VWS V14.01,2013-02-11 23:06:00,
2013-02-11 17:15:00,43.2,4.8,30.03,NW,315,6.5,9.4,20,-99.99,,---,-99.99,0.00,VWS V14.01,2013-02-11 23:15:00,
2013-02-11 17:21:00,42.4,5.3,30.03,NW,315,6.3,6.3,21,-99.99,,---,-99.99,0.00,VWS V14.01,2013-02-11 23:21:00,
2013-02-11 17:27:00,41.7,4.7,30.03,NW,315,6.9,7.4,21,-99.99,,---,-99.99,0.00,VWS V14.01,2013-02-11 23:27:00,
2013-02-11 17:33:00,41.5,4.5,30.03,NNW,338,4.5,6.9,21,-99.99,,---,-99.99,0.00,VWS V14.01,2013-02-11 23:33:00,
2013-02-11 17:39:00,40.5,3.6,30.03,NW,315,5.4,5.6,21,-99.99,,---,-99.99,0.00,VWS V14.01,2013-02-11 23:39:00,
2013-02-11 17:45:00,39.7,3.0,30.03,NW,315,4.0,4.0,21,-99.99,,---,-99.99,0.00,VWS V14.01,2013-02-11 23:45:00,
2013-02-11 17:51:00,39.4,2.7,30.03,WNW,292,4.3,4.3,21,-99.99,,---,-99.99,0.00,VWS V14.01,2013-02-11 23:51:00,
2013-02-11 17:58:00,38.3,1.8,30.03,WNW,292,3.1,3.4,21,-99.99,,---,-99.99,0.00,VWS V14.01,2013-02-11 23:58:00,
2013-02-11 18:04:00,37.0,1.7,30.03,NNW,338,3.4,3.4,22,-99.99,,---,-99.99,0.00,VWS V14.01,2013-02-12 00:04:00,
2013-02-11 18:09:00,36.9,1.6,30.03,NW,315,1.6,1.6,22,-99.99,,---,-99.99,0.00,VWS V14.01,2013-02-12 00:09:00,
2013-02-11 18:14:00,36.9,1.6,30.03,NNW,338,2.9,2.9,22,-99.99,,---,-99.99,0.00,VWS V14.01,2013-02-12 00:14:00,
2013-02-11 18:20:00,37.2,1.9,30.00,NNW,338,2.7,2.7,22,-99.99,,---,-99.99,0.00,VWS V14.01,2013-02-12 00:20:00,
2013-02-11 18:25:00,37.2,1.9,30.00,NNW,338,3.1,3.4,22,-99.99,,---,-99.99,0.00,VWS V14.01,2013-02-12 00:25:00,
2013-02-11 18:30:00,36.9,1.6,30.00,NNW,338,2.7,2.7,22,-99.99,,---,-99.99,0.00,VWS V14.01,2013-02-12 00:30:00,
2013-02-11 18:36:00,36.3,1.1,30.00,NNW,338,3.1,3.8,22,-99.99,,---,-99.99,0.00,VWS V14.01,2013-02-12 00:36:00,
2013-02-11 18:42:00,35.1,0.1,30.00,NNW,338,3.8,4.0,22,-99.99,,---,-99.99,0.00,VWS V14.01,2013-02-12 00:42:00,
2013-02-11 18:51:00,34.9,-0.1,30.03,NW,315,3.4,3.4,22,-99.99,,---,-99.99,0.00,VWS V14.01,2013-02-12 00:51:00,
2013-02-11 18:57:00,34.7,-0.2,30.03,NNW,338,3.1,3.1,22,-99.99,,---,-99.99,0.00,VWS V14.01,2013-02-12 00:57:00,
2013-02-11 19:03:00,34.5,-0.4,30.03,NNW,338,3.1,3.4,22,-99.99,,---,-99.99,0.00,VWS V14.01,2013-02-12 01:03:00,
2013-02-11 19:08:00,34.2,-0.7,30.03,NNW,338,3.1,3.1,22,-99.99,,---,-99.99,0.00,VWS V14.01,2013-02-12 01:08:00,
2013-02-11 19:13:00,33.8,-1.0,30.03,NNW,338,2.9,3.1,22,-99.99,,---,-99.99,0.00,VWS V14.01,2013-02-12 01:13:00,
2013-02-11 19:18:00,34.0,-0.9,30.03,NNW,338,3.1,3.1,22,-99.99,,---,-99.99,0.00,VWS V14.01,2013-02-12 01:18:00,
2013-02-11 19:24:00,34.0,-0.9,30.03,NNW,338,3.6,3.6,22,-99.99,,---,-99.99,0.00,VWS V14.01,2013-02-12 01:24:00,
2013-02-11 19:30:00,34.0,-0.9,30.03,NNW,338,2.5,2.7,22,-99.99,,---,-99.99,0.00,VWS V14.01,2013-02-12 01:30:00,
2013-02-11 19:36:00,33.8,-1.0,24.57,NNW,338,2.5,2.5,22,-99.99,,---,-99.99,0.00,VWS V14.01,2013-02-12 01:36:00,
2013-02-11 19:42:00,33.6,-0.2,30.03,NNW,338,1.6,1.6,23,-99.99,,---,-99.99,0.00,VWS V14.01,2013-02-12 01:42:00,
2013-02-11 19:48:00,33.4,-0.4,30.03,NNW,338,2.9,2.9,23,-99.99,,---,-99.99,0.00,VWS V14.01,2013-02-12 01:48:00,
2013-02-11 19:54:00,33.6,-0.2,30.03,NNW,338,2.0,2.0,23,-99.99,,---,-99.99,0.00,VWS V14.01,2013-02-12 01:54:00,
2013-02-11 20:00:00,33.6,-0.2,30.03,NNW,338,2.0,2.5,23,-99.99,,---,-99.99,0.00,VWS V14.01,2013-02-12 02:00:00,
2013-02-11 20:05:00,33.1,-0.7,30.03,NNW,338,1.6,2.0,23,-99.99,,---,-99.99,0.00,VWS V14.01,2013-02-12 02:05:00,
2013-02-11 20:11:00,33.1,-0.7,30.03,NNW,338,2.2,2.5,23,-99.99,,---,-99.99,0.00,VWS V14.01,2013-02-12 02:11:00,
2013-02-11 20:17:00,33.3,-0.5,30.03,North,0,2.7,2.7,23,-99.99,,---,-99.99,0.00,VWS V14.01,2013-02-12 02:17:00,
2013-02-11 20:22:00,33.6,-0.2,30.03,NNW,338,1.6,2.5,23,-99.99,,---,-99.99,0.00,VWS V14.01,2013-02-12 02:22:00,
2013-02-11 20:27:00,33.6,-0.2,30.03,NNW,338,3.1,3.1,23,-99.99,,---,-99.99,0.00,VWS V14.01,2013-02-12 02:27:00,
2013-02-11 20:33:00,33.6,-0.2,30.03,NNW,338,1.6,2.2,23,-99.99,,---,-99.99,0.00,VWS V14.01,2013-02-12 02:33:00,
2013-02-11 20:38:00,33.6,-0.2,30.03,NNW,338,2.7,2.7,23,-99.99,,---,-99.99,0.00,VWS V14.01,2013-02-12 02:38:00,
2013-02-11 20:44:00,32.7,-1.0,30.03,NE,45,2.2,587.2,23,-99.99,,---,-99.99,0.00,VWS V14.01,2013-02-12 02:44:00,
2013-02-11 20:50:00,32.9,-0.8,30.03,NNW,338,4.9,4.9,23,-99.99,,---,-99.99,0.00,VWS V14.01,2013-02-12 02:50:00,
2013-02-11 20:55:00,32.9,-0.8,30.03,NNE,22,3.4,3.4,23,-99.99,,---,-99.99,0.00,VWS V14.01,2013-02-12 02:55:00,
2013-02-11 21:01:00,32.9,-0.8,24.57,NNW,338,3.4,3.8,23,-99.99,,---,-99.99,0.00,VWS V14.01,2013-02-12 03:01:00,
2013-02-11 21:07:00,32.7,-1.0,30.03,NNW,338,3.6,3.6,23,-99.99,,---,-99.99,0.00,VWS V14.01,2013-02-12 03:07:00,
2013-02-11 21:12:00,32.2,-1.4,30.03,NNW,338,3.4,3.4,23,-99.99,,---,-99.99,0.00,VWS V14.01,2013-02-12 03:12:00,
2013-02-11 21:17:00,32.2,-1.4,30.03,NNW,338,2.7,3.1,23,-99.99,,---,-99.99,0.00,VWS V14.01,2013-02-12 03:17:00,